DAL160 KMSP-EHAM

Flight info

Callsign DAL160
Flight time N/A
Altitude 37000
Route WLSTN7 WLSTN DCT CMX DCT BAFAL DCT ROUND/N0493F390 DCT PUVOK DCT CUDDY/M084F390 DCT 58N050W 59N040W 59N030W 58N020W 58N015W DCT GOMUP/N0481F390 DCT GINGA/N0482F410 DCT GOW DCT FENIK DCT TLA DCT NATEB DCT ROKAN DCT TOPPA
Aircraft A359/H-SADE2E3GHIJ1J4J5M1P2RWXYZ/LB1D1G1

Departure

Time N/A
Airport Minneapolis–Saint Paul International Airport / Wold–Chamberlain Field (KMSP)

Arrival

Time 2026-05-05 04:35
Airport Amsterdam Airport Schiphol (EHAM)
Time Latitude Longitude Altitude Speed Heading
2026-05-05 04:03 54.16817 1.51165 41005 ft 501 kts 117°
2026-05-05 04:03 54.13717 1.61812 41003 ft 501 kts 117°
2026-05-05 04:04 54.10628 1.72377 41007 ft 502 kts 117°
2026-05-05 04:04 54.07504 1.83012 41006 ft 502 kts 117°
2026-05-05 04:05 54.04367 1.93642 41010 ft 502 kts 117°
2026-05-05 04:05 54.01223 2.04249 41010 ft 502 kts 117°
2026-05-05 04:06 53.98071 2.14836 41012 ft 502 kts 118°
2026-05-05 04:06 53.94901 2.25437 40895 ft 502 kts 118°
2026-05-05 04:07 53.93320 2.30706 40650 ft 500 kts 118°
2026-05-05 04:07 53.91764 2.35879 40392 ft 499 kts 118°
2026-05-05 04:07 53.90185 2.41119 39769 ft 498 kts 118°
2026-05-05 04:07 53.88601 2.46361 39074 ft 500 kts 118°
2026-05-05 04:08 53.87014 2.51604 38359 ft 500 kts 118°
2026-05-05 04:08 53.85427 2.56834 37672 ft 498 kts 118°
2026-05-05 04:08 53.83830 2.62087 37007 ft 495 kts 118°
2026-05-05 04:08 53.82255 2.67257 36356 ft 492 kts 117°
2026-05-05 04:09 53.80702 2.72341 35713 ft 490 kts 117°
2026-05-05 04:09 53.79136 2.77459 35039 ft 489 kts 117°
2026-05-05 04:09 53.77572 2.82561 34295 ft 489 kts 117°
2026-05-05 04:09 53.76008 2.87648 33597 ft 487 kts 117°
2026-05-05 04:10 53.74453 2.92697 33075 ft 480 kts 117°
2026-05-05 04:10 53.72920 2.97669 32564 ft 474 kts 117°
2026-05-05 04:10 53.71404 3.02572 32037 ft 469 kts 117°
2026-05-05 04:10 53.69902 3.07417 31551 ft 464 kts 118°
2026-05-05 04:11 53.68408 3.12230 31028 ft 459 kts 118°
2026-05-05 04:11 53.66798 3.16833 30598 ft 453 kts 127°
2026-05-05 04:11 53.64784 3.20849 30174 ft 445 kts 138°
2026-05-05 04:11 53.62561 3.24269 29671 ft 440 kts 141°
2026-05-05 04:12 53.61148 3.26329 29366 ft 437 kts 141°
2026-05-05 04:12 53.58980 3.29453 28913 ft 433 kts 142°
2026-05-05 04:12 53.56701 3.32724 28433 ft 428 kts 142°
2026-05-05 04:12 53.54441 3.35960 27955 ft 424 kts 142°
2026-05-05 04:13 53.52205 3.39158 27502 ft 420 kts 142°
2026-05-05 04:13 53.49988 3.42323 27040 ft 417 kts 142°
2026-05-05 04:13 53.47780 3.45472 26582 ft 416 kts 143°
2026-05-05 04:13 53.45577 3.48608 26106 ft 414 kts 143°
2026-05-05 04:14 53.43381 3.51729 25654 ft 412 kts 143°
2026-05-05 04:14 53.41130 3.54658 25371 ft 409 kts 149°
2026-05-05 04:14 53.38625 3.57048 25361 ft 421 kts 160°
2026-05-05 04:14 53.35885 3.58762 25171 ft 417 kts 166°
2026-05-05 04:15 53.33133 3.60162 24761 ft 410 kts 168°
2026-05-05 04:15 53.30374 3.61480 23985 ft 415 kts 169°
2026-05-05 04:15 53.27618 3.62767 23363 ft 415 kts 169°
2026-05-05 04:15 53.24846 3.64052 22824 ft 411 kts 169°
2026-05-05 04:16 53.22107 3.65318 22330 ft 406 kts 169°
2026-05-05 04:16 53.19398 3.66565 21818 ft 401 kts 168°
2026-05-05 04:16 53.16719 3.67795 21336 ft 397 kts 168°
2026-05-05 04:16 53.14061 3.69012 20848 ft 394 kts 168°
2026-05-05 04:17 53.11433 3.70214 20365 ft 390 kts 168°
2026-05-05 04:17 53.08821 3.71407 19879 ft 388 kts 168°
2026-05-05 04:17 53.06256 3.72577 19387 ft 385 kts 168°
2026-05-05 04:17 53.03675 3.73753 18921 ft 383 kts 167°
2026-05-05 04:18 53.01105 3.74921 18434 ft 380 kts 167°
2026-05-05 04:18 52.98562 3.76077 17911 ft 378 kts 167°
2026-05-05 04:18 52.96063 3.77212 17436 ft 374 kts 167°
2026-05-05 04:18 52.93528 3.78362 16943 ft 371 kts 167°
2026-05-05 04:19 52.91077 3.79473 16482 ft 368 kts 167°
2026-05-05 04:19 52.88615 3.80585 16014 ft 365 kts 167°
2026-05-05 04:19 52.86172 3.81689 15548 ft 363 kts 167°
2026-05-05 04:19 52.83743 3.82784 15079 ft 361 kts 167°
2026-05-05 04:20 52.81324 3.83874 14611 ft 359 kts 167°
2026-05-05 04:20 52.78919 3.84957 14151 ft 357 kts 167°
2026-05-05 04:20 52.76553 3.86020 13681 ft 355 kts 167°
2026-05-05 04:20 52.74173 3.87089 13188 ft 352 kts 167°
2026-05-05 04:21 52.71815 3.88148 12734 ft 349 kts 167°
2026-05-05 04:21 52.69481 3.89194 12262 ft 346 kts 166°
2026-05-05 04:21 52.67167 3.90230 11816 ft 343 kts 166°
2026-05-05 04:21 52.64872 3.91256 11372 ft 340 kts 166°
2026-05-05 04:22 52.63364 3.91929 11083 ft 338 kts 166°
2026-05-05 04:22 52.61099 3.92941 10625 ft 336 kts 166°
2026-05-05 04:22 52.58153 3.94257 10275 ft 316 kts 167°
2026-05-05 04:22 52.56110 3.95170 10144 ft 294 kts 166°
2026-05-05 04:23 52.54787 3.95758 10063 ft 288 kts 166°
2026-05-05 04:23 52.52934 3.96731 9934 ft 280 kts 157°
2026-05-05 04:23 52.51260 3.98492 9837 ft 295 kts 142°
2026-05-05 04:23 52.49675 4.00666 9726 ft 295 kts 140°
2026-05-05 04:24 52.48111 4.02861 9188 ft 297 kts 140°
2026-05-05 04:24 52.46536 4.05064 8712 ft 297 kts 140°
2026-05-05 04:24 52.44972 4.07241 8356 ft 292 kts 140°
2026-05-05 04:25 52.41884 4.11524 7728 ft 290 kts 140°
2026-05-05 04:25 52.40350 4.13643 7506 ft 283 kts 140°
2026-05-05 04:25 52.38869 4.15688 7322 ft 274 kts 140°
2026-05-05 04:25 52.37434 4.17665 7133 ft 264 kts 140°
2026-05-05 04:26 52.36062 4.19554 6884 ft 258 kts 140°
2026-05-05 04:26 52.34689 4.21443 6373 ft 257 kts 140°
2026-05-05 04:26 52.33333 4.23306 6089 ft 253 kts 140°
2026-05-05 04:26 52.31992 4.25146 5821 ft 250 kts 140°
2026-05-05 04:27 52.30653 4.26984 5574 ft 250 kts 140°
2026-05-05 04:27 52.29334 4.28791 5333 ft 246 kts 140°
2026-05-05 04:27 52.28042 4.30560 5070 ft 245 kts 139°
2026-05-05 04:27 52.26738 4.32346 4816 ft 245 kts 139°
2026-05-05 04:28 52.25447 4.34112 4558 ft 235 kts 139°
2026-05-05 04:28 52.24239 4.35810 4256 ft 224 kts 135°
2026-05-05 04:28 52.23340 4.37817 3930 ft 216 kts 116°
2026-05-05 04:28 52.22684 4.40008 3630 ft 215 kts 112°
2026-05-05 04:29 52.22057 4.42222 3385 ft 215 kts 112°
2026-05-05 04:29 52.21429 4.44427 3204 ft 214 kts 112°
2026-05-05 04:29 52.20821 4.46594 3015 ft 212 kts 112°
2026-05-05 04:29 52.20234 4.48781 2836 ft 205 kts 106°
2026-05-05 04:30 52.20223 4.50995 2646 ft 192 kts 74°
2026-05-05 04:30 52.20784 4.52886 2480 ft 180 kts 51°
2026-05-05 04:30 52.21495 4.54459 2377 ft 165 kts 53°
2026-05-05 04:30 52.22109 4.56033 2311 ft 164 kts 57°
2026-05-05 04:31 52.22686 4.57573 2261 ft 153 kts 55°
2026-05-05 04:31 52.23235 4.59001 2124 ft 144 kts 55°
2026-05-05 04:31 52.23747 4.60329 1923 ft 133 kts 53°
2026-05-05 04:31 52.24222 4.61556 1758 ft 128 kts 54°
2026-05-05 04:32 52.24699 4.62789 1587 ft 128 kts 54°
2026-05-05 04:32 52.25174 4.64021 1403 ft 128 kts 54°
2026-05-05 04:32 52.25649 4.65252 1225 ft 127 kts 55°
2026-05-05 04:32 52.26116 4.66463 1075 ft 128 kts 55°
2026-05-05 04:33 52.26571 4.67706 920 ft 127 kts 56°
2026-05-05 04:33 52.27018 4.68949 683 ft 126 kts 52°
2026-05-05 04:33 52.27483 4.70166 533 ft 126 kts 52°
2026-05-05 04:33 52.27968 4.71371 381 ft 127 kts 52°
2026-05-05 04:34 52.28449 4.72579 210 ft 126 kts 53°
2026-05-05 04:34 52.28923 4.73779 46 ft 126 kts 54°
2026-05-05 04:34 52.29379 4.74945 5 ft 108 kts 57°
2026-05-05 04:34 52.29699 4.75779 4 ft 65 kts 58°
2026-05-05 04:35 52.29881 4.76248 3 ft 43 kts 58°
2026-05-05 04:35 52.29998 4.76504 4 ft 22 kts 39°
2026-05-05 04:35 52.30121 4.76621 5 ft 15 kts 28°
2026-05-05 04:35 52.30208 4.76696 5 ft 15 kts 27°
2026-05-05 04:36 52.30298 4.76742 5 ft 9 kts 350°
2026-05-05 04:36 52.30361 4.76728 5 ft 10 kts 16°
2026-05-05 04:36 52.30408 4.76813 6 ft 11 kts 58°
2026-05-05 04:36 52.30451 4.76933 6 ft 13 kts 57°
2026-05-05 04:37 52.30497 4.77050 5 ft 11 kts 57°
2026-05-05 04:37 52.30480 4.77150 5 ft 10 kts 137°
2026-05-05 04:37 52.30477 4.77254 5 ft 11 kts 63°
2026-05-05 04:37 52.30521 4.77367 5 ft 13 kts 58°
2026-05-05 04:38 52.30573 4.77500 5 ft 15 kts 57°
2026-05-05 04:38 52.30652 4.77585 5 ft 14 kts
2026-05-05 04:38 52.30752 4.77597 5 ft 15 kts
2026-05-05 04:38 52.30867 4.77609 5 ft 17 kts
2026-05-05 04:39 52.30971 4.77618 5 ft 5 kts
2026-05-05 04:39 52.31005 4.77603 5 ft 6 kts 322°
2026-05-05 04:39 52.31032 4.77536 5 ft 9 kts 301°
2026-05-05 04:39 52.31064 4.77443 5 ft 9 kts 292°
2026-05-05 04:40 52.31072 4.77346 5 ft 8 kts 272°
2026-05-05 04:40 52.31074 4.77260 5 ft 7 kts 273°
2026-05-05 04:40 52.31077 4.77187 5 ft 6 kts 272°
2026-05-05 04:40 52.31079 4.77125 5 ft 5 kts 273°
2026-05-05 04:41 52.31080 4.77075 5 ft 4 kts 273°
2026-05-05 04:41 52.31081 4.77047 5 ft 0 kts 273°
2026-05-05 04:41 52.31082 4.77023 5 ft 5 kts 274°
2026-05-05 04:41 52.31085 4.76957 5 ft 7 kts 274°
2026-05-05 04:42 52.31079 4.76879 5 ft 7 kts 242°
2026-05-05 04:42 52.31043 4.76826 5 ft 8 kts 216°
2026-05-05 04:42 52.30994 4.76801 5 ft 8 kts 184°
2026-05-05 04:42 52.30948 4.76797 5 ft 5 kts 182°
2026-05-05 04:43 52.30924 4.76795 5 ft 1 kts 182°
2026-05-05 04:43 52.30918 4.76795 5 ft 1 kts 182°